星链-30141 (STARLINK-30141 )

导读

STARLINK-30141是美国SpaceX公司星链星座的成员,于2023年8月11日发射入轨,属于星链快速扩张阶段部署的卫星。作为低地球轨道通信卫星,它依托星链技术,为全球偏远地区、海上及航空场景提供高速低延迟宽带互联网服务,助力星链实现全球无缝网络覆盖,是目前全球规模最大低轨卫星组网的重要组成部分。

Basic Information
目录编号:
57620
目录名称:
STARLINK-30141
国际标识:
2023-119U
轨道中心:
EARTH
卫星名称:
星链-30141
卫星全名:
星链-30141 (STARLINK-30141 )
卫星状态:
在轨 (已飞行1120 天)
发射日期:
2023-08-11 UTC
国别 :
美国 (US)
星等 :
--
Orbit Information
数据来源 国际轨道数据 AOE轨道数据
星历时间 2026-09-03T18:46:54+0800
18小时前
查看轨道信息
2026-09-03T22:00:00+0800
15小时前
查看轨道信息
半长轴 6861.216km 6861.236km
偏心率 0.000103 0.0000089
轨道倾角 43.001° 42.999°
近地点辐角 290.298° 167.246°
升交点赤经 157.583° 156.827°
平近点角 69.776° 211.127°
近地点 482.372km 483.037km
远地点 483.786km 483.161km
周期 94.267分钟 94.268分钟
每日圈数 15.275702 15.275636
Detailed Information
固有亮度:
5
最大亮度:
0.3
卫星平台:
Starlink v2.0 mini
覆盖范围:
全球
运营商:
太空探索技术公司
运营商所在国:
美国
制造商(研发单位):
太空探索技术公司
制造商所在国:
美国
使用方式:
暂无
Satellite Introduction
星链(Starlink)计划是由太空探索技术公司(SpaceX)提出的一个巨型低轨卫星互联网星座项目,计划在2019年至2024年间在太空搭建由约1.2万颗卫星组成的“星链”网络,其中1584颗将部署在地球上空550千米处的近地轨道,并从2020年开始工作。该卫星仍在工作。
2D Orbit Map
3D Orbit Map
Orbit Altitude Analysis Chart
Orbit Inclination Analysis Chart
Orbit Comprehensive Analysis Chart
View Comprehensive Chart
Conjunction Data List
Event ID Objects TCA Miss Dist (km) Collision Risk Probability Collision Risk Index (CRI) Action
CDM_260905-084805-762006-162321
2026-09-05T
08:48:47+0000
1.239 km
极远距离
7.212723E-6 低风险 0.52
CDM_260904-201305-762006-762621
2026-09-04T
20:13:28+0000
1.308 km
极远距离
5.096673E-6 低风险 0.49
CDM_260905-001005-762006-162321
2026-09-05T
00:10:56+0000
1.393 km
极远距离
4.868641E-6 低风险 0.49
CDM_260831-175205-762006-656222
2026-08-31T
17:52:54+0000
1.491 km
极远距离
4.370385E-6 低风险 0.48
CDM_260905-012701-312105-762021
SL-3 R/B (13121)
2026-09-05T
01:27:10+0000
1.841 km
极远距离
2.09001E-6 低风险 0.41
CDM_260905-071405-762006-162321
2026-09-05T
07:14:37+0000
1.887 km
极远距离
1.973547E-6 低风险 0.41
CDM_260831-192705-762006-656221
2026-08-31T
19:27:03+0000
1.978 km
极远距离
1.942691E-6 低风险 0.41
CDM_260904-161805-762006-762621
2026-09-04T
16:18:05+0000
2.019 km
极远距离
1.440456E-6 低风险 0.38
CDM_260905-014505-762006-162321
2026-09-05T
01:45:06+0000
2.181 km
极远距离
1.399965E-6 低风险 0.38
CDM_260904-175205-762006-762621
2026-09-04T
17:52:15+0000
2.303 km
极远距离
1.088547E-6 低风险 0.36